Location: Crescent
(42.8242°N, 73.7329°W)
Time: 11:16:55
(UTC+00:00)

Vanguard 1 - Visible Passes

Search period start: 16 February 2026 00:00
Search period end: 26 February 2026 00:00
Orbit: 652 x 3820 km, 34.3° (Epoch: 13 February)

Date Brightness Start Highest point End Pass type
(mag) Time Alt. Az. Time Alt. Az. Time Alt. Az.
16 Feb 13.1 01:47:19 10° W 02:06:35 51° SSW 02:13:54 42° SSE visible
16 Feb 13.7 04:14:02 10° W 04:26:29 24° WSW 04:26:29 24° WSW visible
16 Feb 12.9 23:44:13 10° W 00:00:46 64° S 00:19:43 19° ESE visible
17 Feb 13.2 02:07:04 10° W 02:25:54 45° SSW 02:32:18 39° S visible
17 Feb 13.9 04:35:45 10° W 04:44:54 18° WSW 04:44:54 18° WSW visible
18 Feb 13.0 00:03:38 10° W 00:20:22 60° SSW 00:38:12 21° SE visible
18 Feb 13.3 02:26:59 10° W 02:45:08 38° SW 02:50:47 35° SSW visible
18 Feb 14.1 04:59:37 10° WSW 05:03:23 12° WSW 05:03:23 12° WSW visible
19 Feb 13.0 00:23:05 10° W 00:39:55 56° SSW 00:56:45 22° SE visible
19 Feb 13.5 02:47:10 10° W 03:04:16 32° SW 03:09:22 29° SSW visible
20 Feb 13.2 00:42:38 10° W 00:59:24 50° SSW 01:15:25 22° SE visible
20 Feb 13.7 03:07:49 10° W 03:23:18 26° SW 03:28:02 24° SSW visible
20 Feb 12.8 22:40:34 10° W 22:54:15 62° S 23:16:09 10° ESE visible
21 Feb 13.3 01:02:16 10° W 01:18:49 44° SSW 01:34:10 21° SSE visible
21 Feb 13.9 03:29:15 10° W 03:42:16 19° SW 03:46:48 18° SSW visible
21 Feb 12.9 22:59:54 10° W 23:13:47 58° SSW 23:35:35 10° ESE visible
22 Feb 13.4 01:22:05 10° W 01:38:10 38° SSW 01:53:02 19° SSE visible
22 Feb 14.1 03:52:31 10° WSW 04:01:13 14° SW 04:05:40 13° SW visible
22 Feb 13.0 23:19:17 10° W 23:33:19 54° SSW 23:54:48 10° SE visible
23 Feb 13.6 01:42:09 10° W 01:57:26 31° SW 02:12:02 16° S visible
23 Feb 13.1 23:38:44 10° W 23:52:49 48° SSW 00:13:46 10° SE visible
24 Feb 13.8 02:02:40 10° W 02:16:39 25° SW 02:31:09 13° S visible
24 Feb 13.3 23:58:18 10° W 00:12:15 42° SSW 00:32:26 10° SE visible
25 Feb 14.0 02:23:59 10° W 02:35:49 19° SW 02:49:19 10° S visible
